When you browse on this site, cookies collect data to enhance your experience and personalize the content and advertising you see.
Visit our Privacy Policy to learn more. By continuing to use the site, you agree to this use of cookies and data.
  • en France
  • Liste des pays
  • À 7 jours
  • Température de l'eau
  • Carte satellitaire
  • Carte météo
  • Widgets météo
  • user-avatar
    Se connecter

    Météo par heure à Varna

    Ce jour, 25 Mai, Samedi

    Heure Température Précipitation Vent Pression Humidité
    00:00 +13°C° 0 mm 4 m/s 741 mmHg 90%
    01:00 +13°C° 0 mm 5 m/s 741 mmHg 90%
    02:00 +12°C° 0 mm 4 m/s 741 mmHg 90%
    03:00 +12°C° 0 mm 5 m/s 741 mmHg 90%
    04:00 +10°C° 0 mm 5 m/s 741 mmHg 90%
    05:00 +10°C° 0 mm 6 m/s 742 mmHg 90%
    06:00 +13°C° 0 mm 6 m/s 742 mmHg 87%
    07:00 +14°C° 0 mm 6 m/s 742 mmHg 84%
    08:00 +16°C° 0 mm 6 m/s 742 mmHg 78%
    09:00 +17°C° 0.1 mm 6 m/s 743 mmHg 74%
    10:00 +20°C° 0.1 mm 5 m/s 743 mmHg 71%
    11:00 +21°C° 0.1 mm 4 m/s 743 mmHg 67%
    12:00 +21°C° 1.1 mm 4 m/s 743 mmHg 68%
    13:00 +21°C° 1.1 mm 4 m/s 743 mmHg 69%
    14:00 +21°C° 1.1 mm 4 m/s 743 mmHg 70%
    15:00 +21°C° 1.3 mm 4 m/s 743 mmHg 73%
    16:00 +21°C° 1.3 mm 3 m/s 743 mmHg 75%
    17:00 +21°C° 1.3 mm 3 m/s 743 mmHg 78%
    18:00 +20°C° 0.2 mm 3 m/s 743 mmHg 81%
    19:00 +18°C° 0.2 mm 3 m/s 743 mmHg 84%
    20:00 +17°C° 0.2 mm 3 m/s 743 mmHg 87%
    21:00 +17°C° 0 mm 3 m/s 743 mmHg 88%
    22:00 +16°C° 0 mm 3 m/s 743 mmHg 89%
    23:00 +16°C° 0 mm 3 m/s 744 mmHg 90%

    Demain, 26 Mai, Dimanche

    Heure Température Précipitation Vent Pression Humidité
    00:00 +14°C° 0 mm 3 m/s 744 mmHg 90%
    01:00 +14°C° 0 mm 4 m/s 744 mmHg 90%
    02:00 +14°C° 0 mm 4 m/s 744 mmHg 90%
    03:00 +14°C° 0 mm 4 m/s 745 mmHg 90%
    04:00 +14°C° 0 mm 3 m/s 745 mmHg 90%
    05:00 +13°C° 0 mm 3 m/s 745 mmHg 90%
    06:00 +16°C° 0 mm 3 m/s 745 mmHg 86%
    07:00 +18°C° 0 mm 3 m/s 746 mmHg 82%
    08:00 +20°C° 0 mm 3 m/s 746 mmHg 78%
    09:00 +21°C° 0.1 mm 2 m/s 746 mmHg 73%
    10:00 +23°C° 0.1 mm 1 m/s 746 mmHg 69%
    11:00 +25°C° 0.1 mm 1 m/s 747 mmHg 64%
    12:00 +25°C° 0.3 mm 1 m/s 747 mmHg 63%
    13:00 +25°C° 0.3 mm 2 m/s 747 mmHg 62%
    14:00 +25°C° 0.3 mm 2 m/s 747 mmHg 61%
    15:00 +25°C° 0.1 mm 3 m/s 746 mmHg 64%
    16:00 +24°C° 0.1 mm 3 m/s 746 mmHg 67%
    17:00 +24°C° 0.1 mm 3 m/s 746 mmHg 70%
    18:00 +21°C° 0 mm 3 m/s 746 mmHg 76%
    19:00 +19°C° 0 mm 2 m/s 746 mmHg 81%
    20:00 +18°C° 0 mm 2 m/s 746 mmHg 87%
    21:00 +17°C° 0 mm 2 m/s 746 mmHg 86%
    22:00 +17°C° 0 mm 2 m/s 747 mmHg 85%
    23:00 +18°C° 0 mm 1 m/s 747 mmHg 83%

    Après-demain, 27 Mai, Lundi

    Heure Température Précipitation Vent Pression Humidité
    00:00 +16°C° 0 mm 1 m/s 747 mmHg 84%
    01:00 +16°C° 0 mm 1 m/s 747 mmHg 84%
    02:00 +16°C° 0 mm 1 m/s 747 mmHg 85%
    03:00 +16°C° 0 mm 1 m/s 747 mmHg 86%
    04:00 +16°C° 0 mm 1 m/s 747 mmHg 86%
    05:00 +16°C° 0 mm 1 m/s 747 mmHg 87%
    06:00 +19°C° 0 mm 1 m/s 747 mmHg 82%
    07:00 +20°C° 0 mm 1 m/s 747 mmHg 78%
    08:00 +21°C° 0 mm 2 m/s 747 mmHg 73%
    09:00 +23°C° 0 mm 2 m/s 748 mmHg 70%
    10:00 +24°C° 0 mm 3 m/s 748 mmHg 67%
    11:00 +23°C° 0 mm 4 m/s 748 mmHg 63%
    12:00 +23°C° 0 mm 4 m/s 748 mmHg 63%
    13:00 +23°C° 0 mm 4 m/s 747 mmHg 62%
    14:00 +23°C° 0 mm 4 m/s 747 mmHg 61%
    15:00 +22°C° 0 mm 4 m/s 747 mmHg 64%
    16:00 +22°C° 0 mm 4 m/s 747 mmHg 67%
    17:00 +21°C° 0 mm 4 m/s 746 mmHg 70%
    18:00 +20°C° 0 mm 3 m/s 746 mmHg 76%
    19:00 +18°C° 0 mm 3 m/s 746 mmHg 83%
    20:00 +16°C° 0 mm 2 m/s 746 mmHg 89%
    21:00 +16°C° 0 mm 2 m/s 746 mmHg 90%
    22:00 +16°C° 0 mm 2 m/s 746 mmHg 91%
    23:00 +15°C° 0 mm 2 m/s 746 mmHg 91%

    28 Mai, Mardi

    Heure Température Précipitation Vent Pression Humidité
    00:00 +15°C° 0 mm 2 m/s 746 mmHg 92%
    01:00 +15°C° 0 mm 2 m/s 746 mmHg 92%
    02:00 +15°C° 0 mm 2 m/s 745 mmHg 92%
    03:00 +15°C° 0 mm 2 m/s 745 mmHg 91%
    04:00 +15°C° 0 mm 2 m/s 745 mmHg 91%
    05:00 +15°C° 0 mm 2 m/s 744 mmHg 91%
    06:00 +16°C° 0 mm 2 m/s 744 mmHg 86%
    07:00 +18°C° 0 mm 3 m/s 744 mmHg 81%
    08:00 +19°C° 0 mm 3 m/s 744 mmHg 76%
    09:00 +21°C° 0 mm 3 m/s 744 mmHg 73%
    10:00 +22°C° 0 mm 3 m/s 744 mmHg 69%
    11:00 +24°C° 0 mm 3 m/s 744 mmHg 65%
    12:00 +24°C° 0 mm 3 m/s 743 mmHg 65%
    13:00 +25°C° 0 mm 3 m/s 743 mmHg 64%
    14:00 +25°C° 0 mm 3 m/s 742 mmHg 63%
    15:00 +24°C° 0 mm 3 m/s 742 mmHg 66%
    16:00 +24°C° 0 mm 3 m/s 742 mmHg 68%
    17:00 +22°C° 0 mm 3 m/s 741 mmHg 71%
    18:00 +21°C° 0 mm 3 m/s 741 mmHg 76%
    19:00 +19°C° 0 mm 3 m/s 741 mmHg 81%
    20:00 +18°C° 0 mm 2 m/s 741 mmHg 86%
    21:00 +18°C° 0 mm 3 m/s 741 mmHg 87%
    22:00 +18°C° 0 mm 3 m/s 741 mmHg 88%
    23:00 +17°C° 0 mm 3 m/s 741 mmHg 89%

    29 Mai, Mercredi

    Heure Température Précipitation Vent Pression Humidité
    00:00 +17°C° 0 mm 3 m/s 741 mmHg 85%
    01:00 +17°C° 0 mm 3 m/s 741 mmHg 81%
    02:00 +16°C° 0 mm 3 m/s 741 mmHg 78%
    03:00 +16°C° 0 mm 3 m/s 741 mmHg 79%
    04:00 +16°C° 0 mm 3 m/s 741 mmHg 81%
    05:00 +14°C° 0 mm 3 m/s 741 mmHg 82%
    06:00 +17°C° 0 mm 3 m/s 741 mmHg 77%
    07:00 +19°C° 0 mm 3 m/s 742 mmHg 72%
    08:00 +21°C° 0 mm 3 m/s 742 mmHg 67%
    09:00 +24°C° 0 mm 3 m/s 742 mmHg 63%
    10:00 +26°C° 0 mm 3 m/s 742 mmHg 59%
    11:00 +27°C° 0 mm 3 m/s 742 mmHg 55%
    12:00 +28°C° 0 mm 4 m/s 742 mmHg 54%
    13:00 +28°C° 0 mm 4 m/s 742 mmHg 53%
    14:00 +28°C° 0 mm 4 m/s 742 mmHg 53%
    15:00 +28°C° 0 mm 4 m/s 742 mmHg 56%
    16:00 +27°C° 0 mm 4 m/s 742 mmHg 59%
    17:00 +27°C° 0 mm 4 m/s 742 mmHg 62%
    18:00 +25°C° 0 mm 3 m/s 742 mmHg 67%
    19:00 +22°C° 0 mm 3 m/s 742 mmHg 72%
    20:00 +21°C° 0 mm 2 m/s 743 mmHg 77%
    21:00 +20°C° 0 mm 2 m/s 743 mmHg 77%
    22:00 +20°C° 0 mm 2 m/s 743 mmHg 78%
    23:00 +20°C° 0 mm 2 m/s 743 mmHg 79%

    30 Mai, Jeudi

    Heure Température Précipitation Vent Pression Humidité
    00:00 +19°C° 0 mm 2 m/s 744 mmHg 80%
    01:00 +19°C° 0 mm 2 m/s 744 mmHg 80%
    02:00 +20°C° 0 mm 1 m/s 744 mmHg 81%
    03:00 +20°C° 0 mm 1 m/s 744 mmHg 81%
    04:00 +20°C° 0 mm 1 m/s 744 mmHg 81%
    05:00 +20°C° 0 mm 1 m/s 744 mmHg 82%
    06:00 +20°C° 0 mm 2 m/s 744 mmHg 78%
    07:00 +23°C° 0 mm 2 m/s 745 mmHg 74%
    08:00 +24°C° 0 mm 2 m/s 745 mmHg 70%
    09:00 +25°C° 0.2 mm 2 m/s 745 mmHg 67%
    10:00 +26°C° 0.2 mm 2 m/s 745 mmHg 64%
    11:00 +27°C° 0.2 mm 2 m/s 745 mmHg 61%
    12:00 +27°C° 0.5 mm 2 m/s 745 mmHg 60%
    13:00 +28°C° 0.5 mm 2 m/s 745 mmHg 59%
    14:00 +28°C° 0.5 mm 2 m/s 745 mmHg 57%
    15:00 +27°C° 0.2 mm 2 m/s 745 mmHg 60%
    16:00 +27°C° 0.2 mm 2 m/s 745 mmHg 63%
    17:00 +26°C° 0.2 mm 2 m/s 745 mmHg 66%
    18:00 +25°C° 0.1 mm 1 m/s 745 mmHg 70%
    19:00 +23°C° 0.1 mm 1 m/s 745 mmHg 75%
    20:00 +20°C° 0.1 mm 0 m/s 745 mmHg 80%
    21:00 +19°C° 0.1 mm 0 m/s 745 mmHg 81%
    22:00 +19°C° 0.1 mm 0 m/s 745 mmHg 82%
    23:00 +18°C° 0.1 mm 0 m/s 745 mmHg 83%
    Voir plus